TimeMST,TemperatureF,Dew PointF,Humidity,Sea Level PressureIn,VisibilityMPH,Wind Direction,Wind SpeedMPH,Gust SpeedMPH,PrecipitationIn,Events,Conditions,WindDirDegrees,DateUTC
12:52 AM,-0.9,-7.1,75,30.48,10.0,Calm,Calm,-,N/A,,Clear,0,2011-12-16 07:52:00
1:41 AM,-2.2,-7.6,78,30.28,10.0,Calm,Calm,-,N/A,,Mostly Cloudy,0,2011-12-16 08:41:00
1:52 AM,-2.9,-8.0,79,30.51,10.0,SSE,4.6,-,N/A,,Overcast,160,2011-12-16 08:52:00
2:52 AM,-0.0,-4.0,83,30.49,10.0,Calm,Calm,-,N/A,,Overcast,0,2011-12-16 09:52:00
3:16 AM,-0.4,-5.8,78,30.29,10.0,Calm,Calm,-,N/A,,Partly Cloudy,0,2011-12-16 10:16:00
3:52 AM,-0.9,-6.0,79,30.51,10.0,Calm,Calm,-,N/A,,Clear,0,2011-12-16 10:52:00
4:17 AM,-0.4,-5.8,78,30.29,10.0,SW,3.5,-,N/A,,Mostly Cloudy,230,2011-12-16 11:17:00
4:52 AM,-2.2,-7.6,78,30.29,10.0,Calm,Calm,-,N/A,,Partly Cloudy,0,2011-12-16 11:52:00
5:52 AM,-2.9,-11.0,68,30.63,10.0,WSW,4.6,-,N/A,,Scattered Clouds,250,2011-12-16 12:52:00
6:01 AM,-5.8,-9.4,84,30.33,10.0,WSW,5.8,-,N/A,,Mostly Cloudy,240,2011-12-16 13:01:00
6:31 AM,-2.2,-11.2,66,30.33,10.0,Calm,Calm,-,N/A,,Scattered Clouds,0,2011-12-16 13:31:00
6:52 AM,-6.0,-11.9,75,30.70,10.0,Calm,Calm,-,N/A,,Clear,0,2011-12-16 13:52:00
7:52 AM,-2.9,-9.9,72,30.72,10.0,Calm,Calm,-,N/A,,Scattered Clouds,0,2011-12-16 14:52:00
8:02 AM,1.4,-5.8,72,30.36,10.0,Calm,Calm,-,N/A,,Mostly Cloudy,0,2011-12-16 15:02:00
8:13 AM,6.8,-4.0,61,30.37,8.0,West,4.6,-,N/A,,Overcast,260,2011-12-16 15:13:00
8:52 AM,12.0,-0.0,59,30.66,6.0,West,3.5,-,N/A,,Haze,280,2011-12-16 15:52:00
9:52 AM,17.1,5.0,59,30.65,10.0,WNW,3.5,-,N/A,,Overcast,290,2011-12-16 16:52:00
10:52 AM,24.1,10.0,55,30.62,10.0,Calm,Calm,-,N/A,,Mostly Cloudy,0,2011-12-16 17:52:00
11:07 AM,26.6,10.4,51,30.39,10.0,Calm,Calm,-,N/A,,Scattered Clouds,0,2011-12-16 18:07:00
11:14 AM,28.4,10.4,47,30.38,10.0,Calm,Calm,-,N/A,,Mostly Cloudy,0,2011-12-16 18:14:00
11:21 AM,32.0,10.4,41,30.38,10.0,Variable,3.5,-,N/A,,Partly Cloudy,0,2011-12-16 18:21:00
11:52 AM,32.0,12.0,44,30.58,10.0,Calm,Calm,-,N/A,,Clear,0,2011-12-16 18:52:00
12:52 PM,30.2,12.2,47,30.37,10.0,North,6.9,-,N/A,,Clear,360,2011-12-16 19:52:00
1:52 PM,36.0,12.0,37,30.54,10.0,Calm,Calm,-,N/A,,Clear,0,2011-12-16 20:52:00
2:52 PM,36.0,12.9,39,30.52,10.0,West,5.8,-,N/A,,Clear,280,2011-12-16 21:52:00
3:52 PM,30.0,10.9,45,30.57,10.0,NW,8.1,-,N/A,,Clear,320,2011-12-16 22:52:00
4:52 PM,21.9,9.0,58,30.64,10.0,NW,5.8,-,N/A,,Clear,310,2011-12-16 23:52:00
5:52 PM,15.1,7.0,70,30.70,10.0,NNW,4.6,-,N/A,,Clear,330,2011-12-17 00:52:00
6:52 PM,17.6,1.4,49,30.41,10.0,SSW,5.8,-,N/A,,Clear,200,2011-12-17 01:52:00
7:52 PM,1.0,-2.9,83,30.83,10.0,Calm,Calm,-,N/A,,Clear,0,2011-12-17 02:52:00
8:50 PM,3.2,-4.0,72,30.44,10.0,South,3.5,-,N/A,,Scattered Clouds,190,2011-12-17 03:50:00
8:52 PM,1.9,-4.0,76,30.74,10.0,SSW,3.5,-,N/A,,Scattered Clouds,200,2011-12-17 03:52:00
8:59 PM,1.4,-5.8,72,30.44,10.0,South,3.5,-,N/A,,Mostly Cloudy,190,2011-12-17 03:59:00
9:36 PM,1.4,-4.0,78,30.45,0.8,Calm,Calm,-,N/A,,Haze,0,2011-12-17 04:36:00
9:52 PM,1.9,-2.9,80,30.72,0.5,Calm,Calm,-,N/A,,Haze,0,2011-12-17 04:52:00
10:52 PM,1.9,-2.9,80,30.70,0.2,Calm,Calm,-,N/A,,Haze,0,2011-12-17 05:52:00
11:52 PM,3.9,-4.0,70,30.65,0.5,West,4.6,-,N/A,,Haze,260,2011-12-17 06:52:00